This is the latest recevied weather packets stored in our database for station/object KE0QIB. If no packets are shown the sender has not sent any weather packets the latest 1 day(s).
| Time | Temp. | Humidity | Pressure | Rain* | Wind** | Luminosity | Snow |
|---|---|---|---|---|---|---|---|
| 1777994513 | 5° C | 48% | 1001.3 hPa | 0 mm | 1.34 m/s, 30° | - | - |
| 1777994213 | 5° C | 47% | 1001.3 hPa | 0 mm | 0.89 m/s, 38° | - | - |
| 1777993913 | 5° C | 49% | 1001.3 hPa | 0 mm | 0.89 m/s, 86° | - | - |
| 1777993613 | 4.44° C | 49% | 1001.4 hPa | 0 mm | 0.89 m/s, 158° | - | - |
| 1777993313 | 4.44° C | 51% | 1001.4 hPa | 0 mm | 0.89 m/s, 198° | - | - |
| 1777993013 | 4.44° C | 52% | 1001.4 hPa | 0 mm | 0.89 m/s, 70° | - | - |
| 1777992713 | 3.89° C | 54% | 1001.8 hPa | 0 mm | 0.89 m/s, 40° | - | - |
| 1777992413 | 3.89° C | 55% | 1001.8 hPa | 0 mm | 0.89 m/s, 52° | - | - |
| 1777992113 | 3.89° C | 54% | 1001.8 hPa | 0 mm | 0.89 m/s, 90° | - | - |
| 1777991813 | 3.89° C | 58% | 1001.8 hPa | 0 mm | 0.45 m/s, 85° | - | - |
| 1777991513 | 3.33° C | 58% | 1001.8 hPa | 0 mm | 0.89 m/s, 192° | - | - |
| 1777991213 | 3.33° C | 56% | 1001.8 hPa | 0 mm | 1.34 m/s, 9° | - | - |
| 1777990913 | 3.33° C | 58% | 1001.8 hPa | 0 mm | 1.34 m/s, 148° | - | - |
| 1777990613 | 3.33° C | 59% | 1001.8 hPa | 0 mm | 0.89 m/s, 80° | - | - |
| 1777990313 | 3.33° C | 62% | 1001.8 hPa | 0 mm | 0.45 m/s, 83° | - | - |
| 1777990013 | 3.33° C | 64% | 1001.7 hPa | 0 mm | 0.45 m/s, 178° | - | - |
| 1777989713 | 2.78° C | 64% | 1001.7 hPa | 0 mm | 0.45 m/s, 14° | - | - |
| 1777989413 | 2.78° C | 63% | 1001.7 hPa | 0 mm | 0.45 m/s, 346° | - | - |
| 1777989113 | 2.78° C | 64% | 1001.3 hPa | 0 mm | 0.89 m/s, 337° | - | - |
| 1777988813 | 2.78° C | 63% | 1001.3 hPa | 0 mm | 0.45 m/s, 319° | - | - |
| 1777988513 | 2.78° C | 64% | 1001.3 hPa | 0 mm | 0.45 m/s, 50° | - | - |
| 1777988213 | 2.78° C | 65% | 1001.3 hPa | 0 mm | 0.45 m/s, 50° | - | - |
| 1777987913 | 2.78° C | 63% | 1001.3 hPa | 0 mm | 0.45 m/s, 5° | - | - |
| 1777987613 | 2.78° C | 63% | 1001.3 hPa | 0 mm | 0.45 m/s, 5° | - | - |
| 1777987313 | 2.78° C | 63% | 1001 hPa | 0 mm | 0.45 m/s, 55° | - | - |
* Rain latest hour (hover to see other rain measurements)
** Current wind speed in m/s (hover to see current wind gust speed)